Location: Unspecified
(51.6250°N, 0.8230°E)
Time: 03:59:03
(UTC+00:00)

Intercosmos 25 - Pass Details

Date: 31 January 2021
Orbit: 438 x 2877 km, 82.6° (Epoch: 07 March)

Event Time Altitude Azimuth Distance (km) Brightness Sun altitude
Rises 17:19:32 0° 241° (WSW) 5,704 10.8 -5.8°
Reaches altitude 10° 17:24:55 10° 257° (WSW) 4,230 9.6 -6.6°
Maximum altitude 17:31:40 19° 299° (WNW) 2,871 7.6 -7.6°
Drops below altitude 10° 17:36:42 10° 343° (NNW) 2,989 7.1 -8.3°
Sets 17:39:43 0° 2° (N) 3,600 7.3 -8.8°
